カタログに戻る

STARLINK-30082

運用中通信VLEO
NORAD 57509·PAYLOAD·🇺🇸 United States

打ち上げ Aug 7, 2023 から Cape Canaveral Space Force Station

Loading…

次のパス (今後24時間)

TLE

最新Source: CelesTrak SupGP

元期: Sep 15, 2026, 02:20 UTC

1 57509C 23113Q   26258.09770833 -.00063596  00000+0 -23015-2 0  2587
2 57509  43.0038  26.2751 0002099 267.2495 108.3604 15.27636546    12

AllMySatでSTARLINK-30082をリアルタイム追跡

Download on the App Store